Погода в Рославле

Хотите узнать прогноз погоды в Рославле? Тогда Вам сюда: Погода в Рославле

Поиск расширенной информации на нашем сайте:

Полезная информация:

Новости сайта



02.01.2020
Опубликован Долгосрочный прогноз погоды по городам России и ближнего зарубежья на январь 2020 года.
Карты: Прогноз на январь и февраль 2020 года, Сравнение прогнозируемой аномалии приземной температуры воздуха на январь 2020 года по разным моделям.




Погода в Рославле - сегодня

Время (UTC), дата Ветер
(°,м/с) 
Видим.   Явления Облачность Т
(°С)
Тd
(°С)
f(%) Тe
(°С)
Pmin
(гПа)
dP
(гПа)
Po
(мм)
O2
(г/м3)
Тmin Tmax R s Состояние
почвы
18 24.01.20 250 (З) 4000 м  слаб. морось  10/10 300 м 
[St]
+1.3 +0.5 94 -1  1007.2  -1.3  735  294    +1.3     
21 24.01.20 260 (З) 5{11}  4000 м  слаб. морось  10/10 300 м 
[St]
+1.6 +0.8 94 -1  1006.6  -0.5  734  294           
00 25.01.20 270 (З) 5{12}  10 км  {морось}  10/10 300 м 
[St]
+2 +1.1 94 -1  1006  -0.5  734  293           
03 25.01.20 270 (З) 6{11}  10 км    10/10 300 м 
[St]
+2 +1 93 -1  1005.7  -0.3  734  293  +0.9       
06 25.01.20 260 (З) 5{10}  10 км  в посл. час морось  10/10 240 м 
[St]
+1.9 +0.7 92 -1  1005.5  0.1  734  293  +1.2    0.7  мокрый или
старый снег
10-40% 
09 25.01.20 260 (З) 6-10{10}  10 км  слаб. морось  10/10 300 м 
[St]
+2.4 +0.6 88 -1  1005.2  -0.2  733  293           
12 25.01.20 270 (З) 6-10{12}  10 км  слаб. дождь{морось}  10/10 420 м 
[Frnb]
+3 +0.7 85 1004.6  -0.6  733  292           
15 25.01.20 290 (З) 6-11{12}  20000 м  {дождь}  9/9 450 м средняя 
[Cu Sc|Ac trans]
+2.4 -0.3 82 -1  1006  1.3  734  293      0.0     
18 25.01.20 300 (СЗ) 7-11{15}  20000 м  {дождь}  8/8 600 м 
[Cu hum]
+1.9 -2.1 75 -2  1008.4  2.3  736  295    +3  0.0     
21 25.01.20 290 (З) 5{12}  20000 м    3/3 600 м 
[Cu hum]
+0.6 -2.6 79 -2  1010.6  737  297           
00 26.01.20 280 (З) 20000 м    3/3 600 м 
[Cu hum]
-0.8 -2.8 86 -3  1013.2  2.4  739  299           
03 26.01.20 280 (З) 20000 м    3/3 600 м 
[Cu hum]
-1.9 -3.2 91 -5  1015.2  1.8  740  301  -1.9         
06 26.01.20 280 (З) 20000 м    9/8 540 м средняя 
[Cu Sc|Ac trans]
-1.3 -3.8 83 -3  1016.5  1.4  741  301  -2.5         
09 26.01.20 260 (З) 20000 м    8/3 600 м средняя, верхняя 
[Cu med, cong|Ac trans|Ci fib]
+1 -2.4 78 -1  1017.4  1.1  742  298           
12 26.01.20 260 (З) 4{10}  20000 м    9/6 600 м средняя 
[Cu Sc|Ac trans]
+1.1 -2.5 77 -1  1016.7  -0.7  742  298           
15 26.01.20 250 (З) 4{10}  20000 м    9/9 540 м 
[Cu Sc]
+1.3 -2.1 78 -1  1015.7  -1  741  297           
18 26.01.20 250 (З) 6{10}  20000 м    10/10 500 м 
[Sc]
+1.8 -1.7 78 -1  1014.9  -0.7  740  297    +1.8       
21 26.01.20 260 (З) 5{10}  20000 м    10/10 450 м 
[Sc]
+1.8 -1.3 80 -1  1015  0.1  740  296           
00 27.01.20 260 (З) 20000 м    10/10 420 м 
[Sc]
+1.3 -1.1 84 -1  1015.3  0.1  741  297           
03 27.01.20 260 (З) 20000 м  {снег}  10/10 400 м 
[Sc]
+0.7 -0.7 90 -1  1015.1  -0.2  740  298  +0.4    0.0     
06 27.01.20 250 (З) 4000 м  слаб. снег  10/10 300 м 
[Frnb|Ns]
+0.3 -0.7 93 -1  1015.6  0.4  741  298  +0.3    0.0     
09 27.01.20 260 (З) 10 км  в посл. час снег  10/10 240 м 
[St]
+0.8 -0.6 90 -1  1015.7  0.2  741  298           
12 27.01.20 240 (ЮЗ) 10 км  в посл. час снег  10/6 600 м средняя 
[Cu hum|As op]
+0.5 -1.5 86 -1  1014.8  -1  740  298           
15 27.01.20 180 (Ю) 10 км    10/10 600 м 
[Sc]
-0.2 -1.8 89 1014.4  -0.4  740  298      0.0     
18 27.01.20 180 (Ю) 10 км    10/10 600 м 
[Sc]
-0.4 -2.5 86 -1  1013.7  -0.7  739  299    +1  0.0     
Время (UTC), дата Ветер
(°,м/с) 
Видим.   Явления Облачность Т
(°С)
Тd
(°С)
f(%) Тe
(°С)
Pmin
(гПа)
dP
(гПа)
Po
(мм)
O2
(г/м3)
Тmin Tmax R s Состояние
почвы

Для получения пояснительной информации подведите курсор к названию столбца.

ПОГОДА в Рославле - архив

Всё, что Вы хотите узнать о погоде в Рославле - удобно и подробно!

Выберите нужную дату (начиная с 1 января 2019* года) и нажмите кнопку "Найти".
Будут отображены архивные сводки погоды по пункту Рославль, начиная с указанной даты.


Отображать данные в формате CSV (для использования в таблицах Excel)


Внимание! Наш архив погоды предназначен исключительно для личного некоммерческого использования в познавательных целях. Если Вам необходимы официальные справки о состоянии погоды (для производственных, юридических, коммерческих и т.п. целей), обращайтесь в органы Росгидромета.

*Примечание: данная дата относится к архиву по метеостанциям СССР (Россия, СНГ, Балтия).
Архив по метеостанциям Зарубежной Европы и Азии (кроме Китая) хранится 10 дней, по другим регионам земного шара (Китай, Африка, Америка, Австралия, Океания) - 1 день.

Рославль - район местоположения метеостанции


Название, широта, долгота, высота метеостанции:
Рославль 53.9°ш. 32.8°д. 224 м над ур. моря [Российская Федерация]

Дополнительная информация

В oтличие oт бoльшинства пoгoдных сайтoв мы публикуем пoдрoбную метеoинфoрмацию в детальнoм прoфессиoнальнoм фoрмате.

Характеристики температуры и влажнoсти вoздуха измеряются на высoте 2 м в тени вдали oт зданий и деревьев.
Скoрoсть ветра измеряется на высoте 10 м (на урoвне рoста челoвека скoрoсть ветра ниже в 1.5-2 раза). Если метеoстанция нахoдится в гoрoде или в лесу, тo скoрoсть ветра занижена на 2-4 м/с пo сравнению с oткрытым местoм. Скoрoсть ветра над акватoриями крупных рек и oзёр, а также на вершинах хoлмoв на 2-5 м/с выше, чем в oбычных услoвиях.
Атмoсфернoе давление в разных тoчках местнoсти мoжет значительнo oтличаться oт давления на метеoстанции, в зависимoсти oт услoвий рельефа (при пoдъёме на 10 м давление пoнижается примернo на 1 мм рт.ст.).